Time,TemperatureF,DewpointF,PressureIn,WindDirection,WindDirectionDegrees,WindSpeedMPH,WindSpeedGustMPH,Humidity,HourlyPrecipIn,Conditions,Clouds,dailyrainin,SoftwareType,DateUTC
2013-09-03 00:00:00,81.0,73.5,29.90,SW,236,0.0,0.0,78,0.00,,,0.15,Wunderground v.1.15,2013-09-03 05:00:00,
2013-09-03 00:10:00,81.2,73.3,29.90,SW,236,0.0,0.0,77,0.00,,,0.15,Wunderground v.1.15,2013-09-03 05:10:00,
2013-09-03 00:20:00,81.3,73.4,29.90,SW,236,0.0,0.0,77,0.00,,,0.15,Wunderground v.1.15,2013-09-03 05:20:00,
2013-09-03 00:25:00,81.2,73.3,29.90,SW,236,0.0,0.0,77,0.00,,,0.15,Wunderground v.1.15,2013-09-03 05:25:00,
2013-09-03 00:30:00,81.1,73.2,29.90,SW,236,0.0,0.0,77,0.00,,,0.15,Wunderground v.1.15,2013-09-03 05:30:00,
2013-09-03 00:40:00,80.8,73.3,29.90,WSW,237,0.0,0.0,78,0.00,,,0.15,Wunderground v.1.15,2013-09-03 05:40:00,
2013-09-03 00:45:00,80.7,73.2,29.90,WSW,237,0.0,0.0,78,0.00,,,0.15,Wunderground v.1.15,2013-09-03 05:45:00,
2013-09-03 00:50:00,80.5,73.4,29.90,SW,236,0.0,0.0,79,0.00,,,0.15,Wunderground v.1.15,2013-09-03 05:50:00,
2013-09-03 00:55:00,80.4,73.3,29.90,SW,236,0.0,0.0,79,0.00,,,0.15,Wunderground v.1.15,2013-09-03 05:55:00,
2013-09-03 01:00:00,80.3,73.2,29.90,NNW,342,0.0,0.0,79,0.00,,,0.15,Wunderground v.1.15,2013-09-03 06:00:00,
2013-09-03 01:10:00,81.0,73.1,29.91,NW,307,0.0,0.0,77,0.00,,,0.15,Wunderground v.1.15,2013-09-03 06:10:00,
2013-09-03 01:15:00,81.3,72.6,29.91,WNW,298,0.0,0.0,75,0.00,,,0.15,Wunderground v.1.15,2013-09-03 06:15:00,
2013-09-03 01:20:00,81.9,72.4,29.91,ENE,65,0.0,1.0,73,0.00,,,0.15,Wunderground v.1.15,2013-09-03 06:20:00,
2013-09-03 01:30:00,82.1,71.8,29.91,NE,41,0.0,1.0,71,0.00,,,0.15,Wunderground v.1.15,2013-09-03 06:30:00,
2013-09-03 01:35:00,82.0,71.7,29.91,West,270,0.0,1.0,71,0.00,,,0.15,Wunderground v.1.15,2013-09-03 06:35:00,
2013-09-03 01:40:00,81.9,71.2,29.91,West,270,0.0,1.0,70,0.00,,,0.15,Wunderground v.1.15,2013-09-03 06:40:00,
2013-09-03 01:45:00,81.7,71.0,29.91,NNE,29,0.0,1.0,70,0.00,,,0.15,Wunderground v.1.15,2013-09-03 06:45:00,
2013-09-03 01:50:00,81.7,71.4,29.91,NNE,15,0.0,3.0,71,0.00,,,0.15,Wunderground v.1.15,2013-09-03 06:50:00,
2013-09-03 01:55:00,81.6,70.9,29.91,NNE,16,0.0,3.0,70,0.00,,,0.15,Wunderground v.1.15,2013-09-03 06:55:00,
2013-09-03 02:00:00,81.4,70.7,29.91,ENE,64,0.0,1.0,70,0.00,,,0.15,Wunderground v.1.15,2013-09-03 07:00:00,
2013-09-03 02:10:00,81.1,70.4,29.91,NE,39,0.0,1.0,70,0.00,,,0.00,Wunderground v.1.15,2013-09-03 07:10:00,
2013-09-03 02:15:00,81.0,70.3,29.91,NNE,25,0.0,1.0,70,0.00,,,0.00,Wunderground v.1.15,2013-09-03 07:15:00,
2013-09-03 02:20:00,80.9,70.2,29.91,NNE,25,0.0,1.0,70,0.00,,,0.00,Wunderground v.1.15,2013-09-03 07:20:00,
2013-09-03 02:25:00,80.8,70.1,29.91,ENE,68,0.0,1.0,70,0.00,,,0.00,Wunderground v.1.15,2013-09-03 07:25:00,
2013-09-03 02:30:00,80.7,70.0,29.91,NNW,343,0.0,1.0,70,0.00,,,0.00,Wunderground v.1.15,2013-09-03 07:30:00,
2013-09-03 02:35:00,80.5,70.2,29.91,NE,44,0.0,1.0,71,0.00,,,0.00,Wunderground v.1.15,2013-09-03 07:35:00,
2013-09-03 02:40:00,80.3,69.6,29.91,NE,44,0.0,1.0,70,0.00,,,0.00,Wunderground v.1.15,2013-09-03 07:40:00,
2013-09-03 02:45:00,80.2,69.5,29.91,NE,43,0.0,1.0,70,0.00,,,0.00,Wunderground v.1.15,2013-09-03 07:45:00,
2013-09-03 02:55:00,79.9,69.7,29.91,NE,44,0.0,1.0,71,0.00,,,0.00,Wunderground v.1.15,2013-09-03 07:55:00,
2013-09-03 03:00:00,79.7,69.5,29.91,North,6,0.0,0.0,71,0.00,,,0.00,Wunderground v.1.15,2013-09-03 08:00:00,
2013-09-03 03:10:00,79.5,69.3,29.91,NNE,15,0.0,1.0,71,0.00,,,0.00,Wunderground v.1.15,2013-09-03 08:10:00,
2013-09-03 03:15:00,79.3,68.7,29.91,WNW,288,0.0,1.0,70,0.00,,,0.00,Wunderground v.1.15,2013-09-03 08:15:00,
2013-09-03 03:20:00,79.3,68.7,29.91,North,1,0.0,1.0,70,0.00,,,0.00,Wunderground v.1.15,2013-09-03 08:20:00,
2013-09-03 03:25:00,79.4,68.8,29.90,WNW,297,0.0,1.0,70,0.00,,,0.00,Wunderground v.1.15,2013-09-03 08:25:00,
2013-09-03 03:30:00,79.3,68.2,29.91,NNE,22,0.0,1.0,69,0.00,,,0.00,Wunderground v.1.15,2013-09-03 08:30:00,
2013-09-03 03:40:00,79.1,67.6,29.91,North,6,0.0,2.0,68,0.00,,,0.00,Wunderground v.1.15,2013-09-03 08:40:00,
2013-09-03 03:45:00,79.0,67.5,29.91,NNE,26,0.0,2.0,68,0.00,,,0.00,Wunderground v.1.15,2013-09-03 08:45:00,
2013-09-03 03:55:00,78.6,67.2,29.91,NNE,25,0.0,1.0,68,0.00,,,0.00,Wunderground v.1.15,2013-09-03 08:55:00,
2013-09-03 04:00:00,78.4,67.0,29.91,NNE,26,0.0,1.0,68,0.00,,,0.00,Wunderground v.1.15,2013-09-03 09:00:00,
2013-09-03 04:10:00,78.3,66.9,29.92,WNW,288,0.0,0.0,68,0.00,,,0.00,Wunderground v.1.15,2013-09-03 09:10:00,
2013-09-03 04:20:00,78.0,66.6,29.92,WNW,288,0.0,0.0,68,0.00,,,0.00,Wunderground v.1.15,2013-09-03 09:20:00,
2013-09-03 04:25:00,77.9,66.5,29.92,NW,316,0.0,0.0,68,0.00,,,0.00,Wunderground v.1.15,2013-09-03 09:25:00,
2013-09-03 04:30:00,77.7,66.7,29.92,NW,316,0.0,0.0,69,0.00,,,0.00,Wunderground v.1.15,2013-09-03 09:30:00,
2013-09-03 04:40:00,77.5,66.1,29.92,NE,46,0.0,0.0,68,0.00,,,0.00,Wunderground v.1.15,2013-09-03 09:40:00,
2013-09-03 04:45:00,77.5,66.1,29.92,NE,46,0.0,0.0,68,0.00,,,0.00,Wunderground v.1.15,2013-09-03 09:45:00,
2013-09-03 04:50:00,77.4,66.0,29.92,NE,55,0.0,2.0,68,0.00,,,0.00,Wunderground v.1.15,2013-09-03 09:50:00,
2013-09-03 04:55:00,77.4,66.0,29.92,NE,55,0.0,2.0,68,0.00,,,0.00,Wunderground v.1.15,2013-09-03 09:55:00,
2013-09-03 05:00:00,77.2,65.8,29.92,NE,56,0.0,1.0,68,0.00,,,0.00,Wunderground v.1.15,2013-09-03 10:00:00,
2013-09-03 05:10:00,77.0,66.0,29.92,ENE,58,0.0,1.0,69,0.00,,,0.00,Wunderground v.1.15,2013-09-03 10:10:00,
2013-09-03 05:15:00,76.8,65.9,29.92,ENE,58,0.0,1.0,69,0.00,,,0.00,Wunderground v.1.15,2013-09-03 10:15:00,
2013-09-03 05:25:00,76.7,65.8,29.92,ENE,58,0.0,1.0,69,0.00,,,0.00,Wunderground v.1.15,2013-09-03 10:25:00,
2013-09-03 05:30:00,76.6,65.7,29.92,ENE,58,0.0,1.0,69,0.00,,,0.00,Wunderground v.1.15,2013-09-03 10:30:00,
2013-09-03 05:35:00,76.5,65.6,29.93,ENE,60,0.0,1.0,69,0.00,,,0.00,Wunderground v.1.15,2013-09-03 10:35:00,
2013-09-03 05:40:00,76.6,65.2,29.93,North,9,0.0,0.0,68,0.00,,,0.00,Wunderground v.1.15,2013-09-03 10:40:00,
2013-09-03 05:45:00,76.6,65.7,29.93,North,9,0.0,0.0,69,0.00,,,0.00,Wunderground v.1.15,2013-09-03 10:45:00,
2013-09-03 05:50:00,76.6,65.2,29.93,North,9,0.0,1.0,68,0.00,,,0.00,Wunderground v.1.15,2013-09-03 10:50:00,
2013-09-03 05:55:00,76.4,65.5,29.92,North,8,0.0,1.0,69,0.00,,,0.00,Wunderground v.1.15,2013-09-03 10:55:00,
2013-09-03 06:00:00,76.3,65.4,29.92,North,9,0.0,1.0,69,0.00,,,0.00,Wunderground v.1.15,2013-09-03 11:00:00,
2013-09-03 06:15:00,76.1,65.2,29.93,NNE,26,0.0,0.0,69,0.00,,,0.00,Wunderground v.1.15,2013-09-03 11:15:00,
2013-09-03 06:20:00,76.0,65.1,29.93,North,6,0.0,1.0,69,0.00,,,0.00,Wunderground v.1.15,2013-09-03 11:20:00,
2013-09-03 06:25:00,75.9,65.4,29.93,NW,312,0.0,1.0,70,0.00,,,0.00,Wunderground v.1.15,2013-09-03 11:25:00,
2013-09-03 06:30:00,75.8,65.3,29.93,NW,312,0.0,1.0,70,0.00,,,0.00,Wunderground v.1.15,2013-09-03 11:30:00,
2013-09-03 06:40:00,75.4,65.3,29.93,NW,312,0.0,0.0,71,0.00,,,0.00,Wunderground v.1.15,2013-09-03 11:40:00,
2013-09-03 06:45:00,75.2,65.1,29.93,NW,312,0.0,0.0,71,0.00,,,0.00,Wunderground v.1.15,2013-09-03 11:45:00,
2013-09-03 06:50:00,75.2,65.1,29.94,NW,316,0.0,0.0,71,0.00,,,0.00,Wunderground v.1.15,2013-09-03 11:50:00,
2013-09-03 06:55:00,75.1,65.1,29.93,NW,314,0.0,0.0,71,0.00,,,0.00,Wunderground v.1.15,2013-09-03 11:55:00,
2013-09-03 07:00:00,75.1,65.1,29.94,NW,315,0.0,0.0,71,0.00,,,0.00,Wunderground v.1.15,2013-09-03 12:00:00,
2013-09-03 07:10:00,75.0,65.0,29.94,NW,309,0.0,0.0,71,0.00,,,0.00,Wunderground v.1.15,2013-09-03 12:10:00,
2013-09-03 07:15:00,75.0,65.4,29.94,NW,309,0.0,0.0,72,0.00,,,0.00,Wunderground v.1.15,2013-09-03 12:15:00,
2013-09-03 07:25:00,75.0,65.4,29.94,North,4,0.0,0.0,72,0.00,,,0.00,Wunderground v.1.15,2013-09-03 12:25:00,
2013-09-03 07:30:00,75.1,65.5,29.94,ENE,58,0.0,0.0,72,0.00,,,0.00,Wunderground v.1.15,2013-09-03 12:30:00,
2013-09-03 07:35:00,75.3,65.6,29.94,North,6,0.0,1.0,72,0.00,,,0.00,Wunderground v.1.15,2013-09-03 12:35:00,
2013-09-03 07:40:00,75.5,65.4,29.95,NNW,339,0.0,1.0,71,0.00,,,0.00,Wunderground v.1.15,2013-09-03 12:40:00,
2013-09-03 07:50:00,76.0,65.5,29.95,NNW,339,0.0,0.0,70,0.00,,,0.00,Wunderground v.1.15,2013-09-03 12:50:00,
2013-09-03 07:55:00,76.2,65.7,29.95,NE,51,0.0,0.0,70,0.00,,,0.00,Wunderground v.1.15,2013-09-03 12:55:00,
2013-09-03 08:00:00,76.4,65.5,29.95,NNW,345,0.0,1.0,69,0.00,,,0.00,Wunderground v.1.15,2013-09-03 13:00:00,
2013-09-03 08:10:00,76.8,65.9,29.95,WSW,249,0.0,4.0,69,0.00,,,0.00,Wunderground v.1.15,2013-09-03 13:10:00,
2013-09-03 08:15:00,76.9,65.5,29.95,NE,43,0.0,4.0,68,0.00,,,0.00,Wunderground v.1.15,2013-09-03 13:15:00,
2013-09-03 08:20:00,77.1,66.1,29.95,NE,45,0.0,2.0,69,0.00,,,0.00,Wunderground v.1.15,2013-09-03 13:20:00,
2013-09-03 08:25:00,77.2,65.8,29.96,NE,36,0.0,2.0,68,0.00,,,0.00,Wunderground v.1.15,2013-09-03 13:25:00,
2013-09-03 08:30:00,77.5,66.1,29.95,NNE,17,0.0,2.0,68,0.00,,,0.00,Wunderground v.1.15,2013-09-03 13:30:00,
2013-09-03 08:35:00,77.6,65.8,29.96,North,4,0.0,2.0,67,0.00,,,0.00,Wunderground v.1.15,2013-09-03 13:35:00,
2013-09-03 08:40:00,77.9,66.1,29.96,NE,41,0.0,2.0,67,0.00,,,0.00,Wunderground v.1.15,2013-09-03 13:40:00,
2013-09-03 08:45:00,78.0,65.7,29.96,ENE,62,0.0,2.0,66,0.00,,,0.00,Wunderground v.1.15,2013-09-03 13:45:00,
2013-09-03 08:55:00,78.5,66.2,29.96,NNE,27,0.0,3.0,66,0.00,,,0.00,Wunderground v.1.15,2013-09-03 13:55:00,
2013-09-03 09:00:00,78.8,66.5,29.96,NNE,26,0.0,3.0,66,0.00,,,0.00,Wunderground v.1.15,2013-09-03 14:00:00,
2013-09-03 09:10:00,79.3,66.5,29.96,SE,128,0.0,3.0,65,0.00,,,0.00,Wunderground v.1.15,2013-09-03 14:10:00,
2013-09-03 09:15:00,79.6,66.3,29.96,ENE,60,1.0,3.0,64,0.00,,,0.00,Wunderground v.1.15,2013-09-03 14:15:00,
2013-09-03 09:20:00,79.9,66.2,29.96,NNW,335,1.0,3.0,63,0.00,,,0.00,Wunderground v.1.15,2013-09-03 14:20:00,
2013-09-03 09:30:00,80.5,66.7,29.96,North,11,0.0,3.0,63,0.00,,,0.00,Wunderground v.1.15,2013-09-03 14:30:00,
2013-09-03 09:40:00,81.8,67.5,29.96,North,11,1.0,2.0,62,0.00,,,0.00,Wunderground v.1.15,2013-09-03 14:40:00,
2013-09-03 09:45:00,82.3,67.5,29.96,ESE,111,1.0,2.0,61,0.00,,,0.00,Wunderground v.1.15,2013-09-03 14:45:00,
2013-09-03 09:50:00,82.8,67.0,29.96,North,9,0.0,1.0,59,0.00,,,0.00,Wunderground v.1.15,2013-09-03 14:50:00,
2013-09-03 09:55:00,83.6,67.8,29.96,NE,45,0.0,1.0,59,0.00,,,0.00,Wunderground v.1.15,2013-09-03 14:55:00,
2013-09-03 10:00:00,84.1,67.7,29.96,WNW,294,0.0,3.0,58,0.00,,,0.00,Wunderground v.1.15,2013-09-03 15:00:00,
2013-09-03 10:10:00,85.2,68.2,29.97,NNE,26,1.0,1.0,57,0.00,,,0.00,Wunderground v.1.15,2013-09-03 15:10:00,
2013-09-03 10:15:00,86.1,68.0,29.97,NE,55,0.0,3.0,55,0.00,,,0.00,Wunderground v.1.15,2013-09-03 15:15:00,
2013-09-03 10:25:00,86.5,68.4,29.97,East,85,1.0,2.0,55,0.00,,,0.00,Wunderground v.1.15,2013-09-03 15:25:00,
2013-09-03 10:30:00,87.4,68.2,29.97,North,360,0.0,2.0,53,0.00,,,0.00,Wunderground v.1.15,2013-09-03 15:30:00,
2013-09-03 10:35:00,88.3,67.9,29.97,SSW,203,0.0,3.0,51,0.00,,,0.00,Wunderground v.1.15,2013-09-03 15:35:00,
2013-09-03 10:40:00,88.8,68.3,29.97,SE,143,0.0,3.0,51,0.00,,,0.00,Wunderground v.1.15,2013-09-03 15:40:00,
2013-09-03 10:45:00,89.3,68.8,29.97,East,86,0.0,3.0,51,0.00,,,0.00,Wunderground v.1.15,2013-09-03 15:45:00,
2013-09-03 10:55:00,90.2,67.2,29.98,NNE,17,0.0,1.0,47,0.00,,,0.00,Wunderground v.1.15,2013-09-03 15:55:00,
2013-09-03 11:00:00,89.7,67.4,29.97,East,100,1.0,1.0,48,0.00,,,0.00,Wunderground v.1.15,2013-09-03 16:00:00,
2013-09-03 11:10:00,90.2,67.2,29.97,NE,41,1.0,2.0,47,0.00,,,0.00,Wunderground v.1.15,2013-09-03 16:10:00,
2013-09-03 11:15:00,90.5,67.5,29.97,ENE,74,1.0,2.0,47,0.00,,,0.00,Wunderground v.1.15,2013-09-03 16:15:00,
2013-09-03 11:20:00,91.2,67.5,29.97,SSE,157,1.0,1.0,46,0.00,,,0.00,Wunderground v.1.15,2013-09-03 16:20:00,
2013-09-03 11:25:00,91.6,67.9,29.97,North,9,0.0,2.0,46,0.00,,,0.00,Wunderground v.1.15,2013-09-03 16:25:00,
2013-09-03 11:30:00,92.0,68.3,29.97,WSW,243,1.0,2.0,46,0.00,,,0.00,Wunderground v.1.15,2013-09-03 16:30:00,
2013-09-03 11:40:00,92.2,68.4,29.97,NE,43,1.0,2.0,46,0.00,,,0.00,Wunderground v.1.15,2013-09-03 16:40:00,
2013-09-03 11:50:00,92.7,68.9,29.97,NNE,18,1.0,1.0,46,0.00,,,0.00,Wunderground v.1.15,2013-09-03 16:50:00,
2013-09-03 11:55:00,93.1,69.3,29.97,ENE,68,1.0,4.0,46,0.00,,,0.00,Wunderground v.1.15,2013-09-03 16:55:00,
2013-09-03 12:00:00,93.6,69.7,29.97,NE,44,1.0,4.0,46,0.00,,,0.00,Wunderground v.1.15,2013-09-03 17:00:00,
2013-09-03 12:10:00,93.3,69.4,29.96,South,178,2.0,2.0,46,0.00,,,0.00,Wunderground v.1.15,2013-09-03 17:10:00,
2013-09-03 12:15:00,94.1,68.9,29.96,SW,215,1.0,3.0,44,0.00,,,0.00,Wunderground v.1.15,2013-09-03 17:15:00,
2013-09-03 12:25:00,95.4,70.0,29.96,East,96,1.0,3.0,44,0.00,,,0.00,Wunderground v.1.15,2013-09-03 17:25:00,
2013-09-03 12:30:00,95.2,69.8,29.96,WSW,252,1.0,3.0,44,0.00,,,0.00,Wunderground v.1.15,2013-09-03 17:30:00,
2013-09-03 12:35:00,95.9,69.8,29.96,WSW,238,1.0,3.0,43,0.00,,,0.00,Wunderground v.1.15,2013-09-03 17:35:00,
2013-09-03 12:40:00,96.3,69.5,29.95,North,354,1.0,3.0,42,0.00,,,0.00,Wunderground v.1.15,2013-09-03 17:40:00,
2013-09-03 12:45:00,96.0,69.9,29.95,SW,228,1.0,3.0,43,0.00,,,0.00,Wunderground v.1.15,2013-09-03 17:45:00,
2013-09-03 12:50:00,96.7,70.5,29.95,SW,215,1.0,4.0,43,0.00,,,0.00,Wunderground v.1.15,2013-09-03 17:50:00,
2013-09-03 13:00:00,96.1,69.3,29.94,SW,221,2.0,6.0,42,0.00,,,0.00,Wunderground v.1.15,2013-09-03 18:00:00,
2013-09-03 13:10:00,96.8,69.9,29.94,SSW,210,1.0,6.0,42,0.00,,,0.00,Wunderground v.1.15,2013-09-03 18:10:00,
2013-09-03 13:15:00,97.2,71.0,29.94,NNW,329,1.0,6.0,43,0.00,,,0.00,Wunderground v.1.15,2013-09-03 18:15:00,
2013-09-03 13:20:00,98.0,69.6,29.94,West,280,1.0,5.0,40,0.00,,,0.00,Wunderground v.1.15,2013-09-03 18:20:00,
2013-09-03 13:25:00,98.0,69.6,29.94,NNE,15,1.0,5.0,40,0.00,,,0.00,Wunderground v.1.15,2013-09-03 18:25:00,
2013-09-03 13:35:00,97.7,70.0,29.93,North,9,2.0,7.0,41,0.00,,,0.00,Wunderground v.1.15,2013-09-03 18:35:00,
2013-09-03 13:40:00,98.3,69.1,29.93,SSW,195,2.0,7.0,39,0.00,,,0.00,Wunderground v.1.15,2013-09-03 18:40:00,
2013-09-03 13:45:00,98.0,70.3,29.93,SW,222,2.0,7.0,41,0.00,,,0.00,Wunderground v.1.15,2013-09-03 18:45:00,
2013-09-03 13:55:00,98.0,70.3,29.93,SE,124,2.0,6.0,41,0.00,,,0.00,Wunderground v.1.15,2013-09-03 18:55:00,
2013-09-03 14:00:00,98.3,69.1,29.93,ESE,122,1.0,1.0,39,0.00,,,0.00,Wunderground v.1.15,2013-09-03 19:00:00,
2013-09-03 14:10:00,97.9,69.5,29.92,SW,224,1.0,2.0,40,0.00,,,0.00,Wunderground v.1.15,2013-09-03 19:10:00,
2013-09-03 14:15:00,98.1,69.7,29.92,SW,219,2.0,2.0,40,0.00,,,0.00,Wunderground v.1.15,2013-09-03 19:15:00,
2013-09-03 14:25:00,99.4,70.1,29.92,NE,44,1.0,6.0,39,0.00,,,0.00,Wunderground v.1.15,2013-09-03 19:25:00,
2013-09-03 14:30:00,99.2,69.9,29.92,SSW,212,1.0,6.0,39,0.00,,,0.00,Wunderground v.1.15,2013-09-03 19:30:00,
2013-09-03 14:35:00,99.0,69.0,29.91,SSW,206,2.0,6.0,38,0.00,,,0.00,Wunderground v.1.15,2013-09-03 19:35:00,
2013-09-03 14:45:00,99.5,69.4,29.91,WSW,246,1.0,4.0,38,0.00,,,0.00,Wunderground v.1.15,2013-09-03 19:45:00,
2013-09-03 14:50:00,100.0,69.1,29.91,SE,141,1.0,1.0,37,0.00,,,0.00,Wunderground v.1.15,2013-09-03 19:50:00,
2013-09-03 14:55:00,100.7,69.7,29.90,SE,146,0.0,6.0,37,0.00,,,0.00,Wunderground v.1.15,2013-09-03 19:55:00,
2013-09-03 15:00:00,101.4,69.5,29.90,ENE,71,1.0,1.0,36,0.00,,,0.00,Wunderground v.1.15,2013-09-03 20:00:00,
2013-09-03 15:10:00,100.9,68.2,29.90,SW,221,2.0,4.0,35,0.00,,,0.00,Wunderground v.1.15,2013-09-03 20:10:00,
2013-09-03 15:20:00,100.3,68.5,29.89,WSW,248,2.0,2.0,36,0.00,,,0.00,Wunderground v.1.15,2013-09-03 20:20:00,
2013-09-03 15:25:00,100.1,69.1,29.89,SE,124,1.0,7.0,37,0.00,,,0.00,Wunderground v.1.15,2013-09-03 20:25:00,
2013-09-03 15:30:00,100.8,69.0,29.89,SSE,150,1.0,1.0,36,0.00,,,0.00,Wunderground v.1.15,2013-09-03 20:30:00,
2013-09-03 15:35:00,100.8,69.8,29.88,SW,226,1.0,6.0,37,0.00,,,0.00,Wunderground v.1.15,2013-09-03 20:35:00,
2013-09-03 15:40:00,101.2,69.3,29.88,ENE,68,1.0,1.0,36,0.00,,,0.00,Wunderground v.1.15,2013-09-03 20:40:00,
2013-09-03 15:50:00,100.2,68.4,29.88,ENE,63,1.0,1.0,36,0.00,,,0.00,Wunderground v.1.15,2013-09-03 20:50:00,
2013-09-03 15:55:00,100.2,67.6,29.88,SE,129,2.0,2.0,35,0.00,,,0.00,Wunderground v.1.15,2013-09-03 20:55:00,
2013-09-03 16:00:00,99.7,68.0,29.87,North,6,1.0,1.0,36,0.00,,,0.00,Wunderground v.1.15,2013-09-03 21:00:00,
2013-09-03 16:10:00,100.6,68.0,29.86,WSW,245,1.0,4.0,35,0.00,,,0.00,Wunderground v.1.15,2013-09-03 21:10:00,
2013-09-03 16:15:00,101.2,67.6,29.87,ENE,59,1.0,4.0,34,0.00,,,0.00,Wunderground v.1.15,2013-09-03 21:15:00,
2013-09-03 16:20:00,100.7,68.9,29.86,SSE,159,1.0,1.0,36,0.00,,,0.00,Wunderground v.1.15,2013-09-03 21:20:00,
2013-09-03 16:25:00,101.6,68.0,29.86,West,262,1.0,3.0,34,0.00,,,0.00,Wunderground v.1.15,2013-09-03 21:25:00,
2013-09-03 16:30:00,101.3,67.7,29.86,West,266,1.0,3.0,34,0.00,,,0.00,Wunderground v.1.15,2013-09-03 21:30:00,
2013-09-03 16:35:00,101.0,67.5,29.86,NW,304,2.0,5.0,34,0.00,,,0.00,Wunderground v.1.15,2013-09-03 21:35:00,
2013-09-03 16:45:00,100.7,67.2,29.86,ESE,116,2.0,5.0,34,0.00,,,0.00,Wunderground v.1.15,2013-09-03 21:45:00,
2013-09-03 16:50:00,101.1,67.6,29.86,NW,326,1.0,6.0,34,0.00,,,0.00,Wunderground v.1.15,2013-09-03 21:50:00,
2013-09-03 17:00:00,100.5,67.0,29.86,East,91,1.0,1.0,34,0.00,,,0.00,Wunderground v.1.15,2013-09-03 22:00:00,
2013-09-03 17:10:00,100.7,65.5,29.85,SW,233,1.0,1.0,32,0.00,,,0.00,Wunderground v.1.15,2013-09-03 22:10:00,
2013-09-03 17:15:00,101.0,66.6,29.85,SSW,200,1.0,4.0,33,0.00,,,0.00,Wunderground v.1.15,2013-09-03 22:15:00,
2013-09-03 17:20:00,101.2,65.9,29.85,ENE,70,1.0,4.0,32,0.00,,,0.00,Wunderground v.1.15,2013-09-03 22:20:00,
2013-09-03 17:25:00,100.7,65.5,29.85,South,184,1.0,4.0,32,0.00,,,0.00,Wunderground v.1.15,2013-09-03 22:25:00,
2013-09-03 17:35:00,101.1,65.8,29.85,SSE,149,1.0,7.0,32,0.00,,,0.00,Wunderground v.1.15,2013-09-03 22:35:00,
2013-09-03 17:40:00,100.9,65.6,29.85,NNE,29,1.0,1.0,32,0.00,,,0.00,Wunderground v.1.15,2013-09-03 22:40:00,
2013-09-03 17:45:00,100.4,65.2,29.85,SE,138,1.0,7.0,32,0.00,,,0.00,Wunderground v.1.15,2013-09-03 22:45:00,
2013-09-03 17:50:00,100.4,65.2,29.85,SW,236,1.0,1.0,32,0.00,,,0.00,Wunderground v.1.15,2013-09-03 22:50:00,
2013-09-03 17:55:00,100.6,64.5,29.85,WSW,239,1.0,2.0,31,0.00,,,0.00,Wunderground v.1.15,2013-09-03 22:55:00,
2013-09-03 18:00:00,100.7,64.5,29.85,SW,218,1.0,1.0,31,0.00,,,0.00,Wunderground v.1.15,2013-09-03 23:00:00,
2013-09-03 18:10:00,100.2,64.1,29.85,SW,226,0.0,3.0,31,0.00,,,0.00,Wunderground v.1.15,2013-09-03 23:10:00,
2013-09-03 18:15:00,100.7,62.6,29.85,SSE,153,0.0,3.0,29,0.00,,,0.00,Wunderground v.1.15,2013-09-03 23:15:00,
2013-09-03 18:25:00,100.3,63.3,29.85,WSW,246,1.0,3.0,30,0.00,,,0.00,Wunderground v.1.15,2013-09-03 23:25:00,
2013-09-03 18:30:00,100.0,63.9,29.85,NE,36,1.0,3.0,31,0.00,,,0.00,Wunderground v.1.15,2013-09-03 23:30:00,
2013-09-03 18:35:00,99.4,63.4,29.85,North,354,0.0,3.0,31,0.00,,,0.00,Wunderground v.1.15,2013-09-03 23:35:00,
2013-09-03 18:45:00,98.1,63.2,29.85,NNE,16,0.0,3.0,32,0.00,,,0.00,Wunderground v.1.15,2013-09-03 23:45:00,
2013-09-03 18:50:00,97.5,62.7,29.85,NE,54,0.0,0.0,32,0.00,,,0.00,Wunderground v.1.15,2013-09-03 23:50:00,
2013-09-03 18:55:00,96.8,62.1,29.85,NE,54,0.0,0.0,32,0.00,,,0.00,Wunderground v.1.15,2013-09-03 23:55:00,
2013-09-03 19:00:00,96.2,61.6,29.85,NE,54,0.0,0.0,32,0.00,,,0.00,Wunderground v.1.15,2013-09-04 00:00:00,
2013-09-03 19:10:00,95.3,62.5,29.86,NE,54,0.0,1.0,34,0.00,,,0.00,Wunderground v.1.15,2013-09-04 00:10:00,
2013-09-03 19:15:00,94.7,62.0,29.86,WSW,238,0.0,1.0,34,0.00,,,0.00,Wunderground v.1.15,2013-09-04 00:15:00,
2013-09-03 19:25:00,94.1,62.3,29.86,SSW,211,0.0,2.0,35,0.00,,,0.00,Wunderground v.1.15,2013-09-04 00:25:00,
2013-09-03 19:30:00,93.6,62.6,29.86,SSW,211,0.0,2.0,36,0.00,,,0.00,Wunderground v.1.15,2013-09-04 00:30:00,
2013-09-03 19:35:00,92.9,61.2,29.86,SSW,211,0.0,2.0,35,0.00,,,0.00,Wunderground v.1.15,2013-09-04 00:35:00,
2013-09-03 19:40:00,92.2,60.6,29.86,SSW,211,0.0,1.0,35,0.00,,,0.00,Wunderground v.1.15,2013-09-04 00:40:00,
2013-09-03 19:50:00,90.7,60.8,29.86,SSW,211,0.0,0.0,37,0.00,,,0.00,Wunderground v.1.15,2013-09-04 00:50:00,
2013-09-03 19:55:00,90.1,61.1,29.86,SSW,211,0.0,0.0,38,0.00,,,0.00,Wunderground v.1.15,2013-09-04 00:55:00,
2013-09-03 20:00:00,89.3,61.1,29.86,SSW,211,0.0,0.0,39,0.00,,,0.00,Wunderground v.1.15,2013-09-04 01:00:00,
2013-09-03 20:10:00,88.1,60.7,29.87,SSW,211,0.0,0.0,40,0.00,,,0.00,Wunderground v.1.15,2013-09-04 01:10:00,
2013-09-03 20:15:00,87.5,60.9,29.87,SSW,211,0.0,0.0,41,0.00,,,0.00,Wunderground v.1.15,2013-09-04 01:15:00,
2013-09-03 20:20:00,87.1,60.5,29.87,SSW,211,0.0,0.0,41,0.00,,,0.00,Wunderground v.1.15,2013-09-04 01:20:00,
2013-09-03 20:25:00,86.8,61.6,29.87,SSW,211,0.0,0.0,43,0.00,,,0.00,Wunderground v.1.15,2013-09-04 01:25:00,
2013-09-03 20:30:00,86.4,61.9,29.87,SSW,212,0.0,0.0,44,0.00,,,0.00,Wunderground v.1.15,2013-09-04 01:30:00,
2013-09-03 20:35:00,86.0,62.2,29.88,SSW,211,0.0,0.0,45,0.00,,,0.00,Wunderground v.1.15,2013-09-04 01:35:00,
2013-09-03 20:40:00,85.5,62.4,29.88,SSW,211,0.0,0.0,46,0.00,,,0.00,Wunderground v.1.15,2013-09-04 01:40:00,
2013-09-03 20:45:00,85.1,62.0,29.88,SSW,211,0.0,0.0,46,0.00,,,0.00,Wunderground v.1.15,2013-09-04 01:45:00,
2013-09-03 20:55:00,84.8,61.7,29.88,SSW,211,0.0,0.0,46,0.00,,,0.00,Wunderground v.1.15,2013-09-04 01:55:00,
2013-09-03 21:00:00,84.7,61.6,29.89,SSW,211,0.0,0.0,46,0.00,,,0.00,Wunderground v.1.15,2013-09-04 02:00:00,
2013-09-03 21:10:00,84.2,61.8,29.89,SSW,213,0.0,0.0,47,0.00,,,0.00,Wunderground v.1.15,2013-09-04 02:10:00,
2013-09-03 21:15:00,83.9,62.1,29.89,SSW,212,0.0,0.0,48,0.00,,,0.00,Wunderground v.1.15,2013-09-04 02:15:00,
2013-09-03 21:20:00,84.1,62.9,29.90,SSW,211,0.0,0.0,49,0.00,,,0.00,Wunderground v.1.15,2013-09-04 02:20:00,
2013-09-03 21:25:00,84.3,62.5,29.90,SSW,212,0.0,0.0,48,0.00,,,0.00,Wunderground v.1.15,2013-09-04 02:25:00,
2013-09-03 21:35:00,84.3,63.1,29.90,SSW,212,0.0,0.0,49,0.00,,,0.00,Wunderground v.1.15,2013-09-04 02:35:00,
2013-09-03 21:40:00,84.3,63.1,29.90,SSW,212,0.0,0.0,49,0.00,,,0.00,Wunderground v.1.15,2013-09-04 02:40:00,
2013-09-03 21:45:00,84.2,63.5,29.90,SSW,212,0.0,0.0,50,0.00,,,0.00,Wunderground v.1.15,2013-09-04 02:45:00,
2013-09-03 21:55:00,83.7,64.2,29.90,SSW,212,0.0,0.0,52,0.00,,,0.00,Wunderground v.1.15,2013-09-04 02:55:00,
2013-09-03 22:00:00,83.4,63.9,29.91,SSW,212,0.0,0.0,52,0.00,,,0.00,Wunderground v.1.15,2013-09-04 03:00:00,
2013-09-03 22:10:00,83.4,63.9,29.91,SSW,212,0.0,0.0,52,0.00,,,0.00,Wunderground v.1.15,2013-09-04 03:10:00,
2013-09-03 22:15:00,83.3,64.4,29.91,SSW,212,0.0,0.0,53,0.00,,,0.00,Wunderground v.1.15,2013-09-04 03:15:00,
2013-09-03 22:20:00,83.1,64.7,29.91,SSW,212,0.0,0.0,54,0.00,,,0.00,Wunderground v.1.15,2013-09-04 03:20:00,
2013-09-03 22:25:00,82.8,64.5,29.91,SSW,212,0.0,0.0,54,0.00,,,0.00,Wunderground v.1.15,2013-09-04 03:25:00,
2013-09-03 22:30:00,82.5,65.2,29.91,SSW,212,0.0,0.0,56,0.00,,,0.00,Wunderground v.1.15,2013-09-04 03:30:00,
2013-09-03 22:40:00,82.1,65.4,29.91,SSW,212,0.0,0.0,57,0.00,,,0.00,Wunderground v.1.15,2013-09-04 03:40:00,
2013-09-03 22:45:00,81.9,65.2,29.91,SSW,212,0.0,0.0,57,0.00,,,0.00,Wunderground v.1.15,2013-09-04 03:45:00,
2013-09-03 22:55:00,81.6,65.9,29.91,SSW,212,0.0,0.0,59,0.00,,,0.00,Wunderground v.1.15,2013-09-04 03:55:00,
2013-09-03 23:00:00,81.5,65.8,29.91,SSW,212,0.0,0.0,59,0.00,,,0.00,Wunderground v.1.15,2013-09-04 04:00:00,
2013-09-03 23:05:00,81.3,65.6,29.91,SSW,212,0.0,0.0,59,0.00,,,0.00,Wunderground v.1.15,2013-09-04 04:05:00,
2013-09-03 23:10:00,81.1,65.4,29.91,SSW,212,0.0,0.0,59,0.00,,,0.00,Wunderground v.1.15,2013-09-04 04:10:00,
2013-09-03 23:15:00,81.0,65.3,29.91,SSW,212,0.0,0.0,59,0.00,,,0.00,Wunderground v.1.15,2013-09-04 04:15:00,
2013-09-03 23:20:00,80.8,65.1,29.91,SSW,212,0.0,0.0,59,0.00,,,0.00,Wunderground v.1.15,2013-09-04 04:20:00,
2013-09-03 23:25:00,80.9,64.7,29.92,SSW,207,0.0,0.0,58,0.00,,,0.00,Wunderground v.1.15,2013-09-04 04:25:00,
2013-09-03 23:30:00,81.2,65.0,29.92,SSW,207,0.0,0.0,58,0.00,,,0.00,Wunderground v.1.15,2013-09-04 04:30:00,
2013-09-03 23:40:00,81.7,64.5,29.92,SSW,207,0.0,0.0,56,0.00,,,0.00,Wunderground v.1.15,2013-09-04 04:40:00,
2013-09-03 23:50:00,81.7,65.0,29.92,SSW,207,0.0,0.0,57,0.00,,,0.00,Wunderground v.1.15,2013-09-04 04:50:00,
2013-09-03 23:55:00,81.6,64.9,29.92,SSW,207,0.0,0.0,57,0.00,,,0.00,Wunderground v.1.15,2013-09-04 04:55:00,